Helicity
24 24 22 22 23 27 33 39 33 21 20 30 31 33 46 53 30 26 14 33 149 103 95 86 73 66 74 102 117 137 186 130 92 124 95 122 144 125 138 174 176 179 248 219 177
33 35 37 34 39 41 44 47 51 44 41 35 31 34 42 54 26 43 58 182 179 118 110 77 58 79 100 88 102 141 156 102 86 147 244 169 171 165 110 109 112 139 165 198 188
45 50 54 51 49 54 52 53 56 55 55 51 43 39 48 50 10 59 89 117 125 92 66 74 78 79 64 98 111 94 148 68 147 178 218 248 118 149 116 125 90 103 122 138 158
63 63 72 75 74 79 87 89 74 70 55 42 36 48 48 54 47 115 60 79 76 55 65 87 89 101 86 88 59 111 84 72 116 122 119 113 140 122 125 71 171 198 161 131 112
70 75 81 85 81 78 83 95 95 84 73 55 41 48 66 41 48 201 134 103 79 79 72 76 93 85 69 85 74 91 75 96 102 110 68 87 94 89 92 69 100 129 184 131 104
98 85 84 82 86 79 80 80 83 78 70 61 47 71 52 56 95 193 104 80 59 81 95 120 115 158 166 129 129 137 139 82 97 65 64 62 60 84 55 48 66 101 114 115 133
127 127 140 116 84 74 72 69 73 75 69 47 30 81 75 38 161 222 142 80 91 82 101 150 196 170 186 125 167 116 95 70 44 42 80 97 72 69 64 117 66 80 101 124 79
115 115 132 132 131 95 75 65 67 82 72 29 44 74 144 90 63 108 109 126 105 132 176 209 121 147 156 156 126 105 73 90 62 2 168 161 90 121 88 108 117 74 72 101 123
104 129 125 111 121 123 104 72 73 108 83 51 94 65 109 170 123 100 75 60 95 133 149 102 99 133 120 126 132 96 120 40 54 77 119 90 78 116 115 83 70 70 86 81 67
99 108 104 88 80 86 90 82 80 69 89 81 99 168 85 101 81 31 44 50 117 109 101 96 95 121 135 123 139 97 102 111 94 65 69 42 46 28 55 66 65 75 86 200 210
73 70 62 58 43 21 41 60 137 92 73 192 124 154 197 201 180 80 86 98 85 102 88 65 116 114 33 50 86 152 183 195 200 56 54 22 65 55 54 59 94 160 166 228 306
35 33 37 38 25 6 16 23 55 76 125 168 105 122 90 102 72 69 116 150 123 83 36 139 75 37 50 163 118 123 123 120 109 105 63 49 62 54 65 133 180 194 256 227 225
28 32 34 27 14 3 13 37 66 70 105 67 64 116 84 57 89 61 154 82 91 60 35 68 78 110 111 127 113 100 93 97 127 110 41 58 54 66 157 198 160 154 147 169 171
28 27 31 29 7 59 32 63 48 7 94 86 62 55 53 129 137 67 194 82 130 74 37 90 40 99 95 100 83 92 139 119 120 92 79 41 67 57 113 132 81 112 129 123 144
31 27 31 37 133 76 46 32 34 41 82 67 166 96 59 147 156 90 110 136 103 85 108 109 118 115 73 77 78 126 137 124 95 80 80 59 97 8 57 66 81 91 102 106 117
35 31 38 74 74 81 15 3 25 103 98 70 74 52 95 30 167 253 256 289 129 83 78 107 127 88 100 145 160 125 98 58 72 82 97 51 120 43 79 48 173 160 120 126 86
33 39 33 73 88 26 26 -5 87 81 33 42 38 67 40 52 95 81 137 162 119 134 103 39 59 97 128 103 102 96 101 96 75 77 68 93 92 15 77 166 200 185 160 99 48
24 13 62 58 49 53 6 -80 18 1 7 1 44 56 16 31 48 26 73 91 33 101 106 88 108 114 62 92 78 76 102 119 116 108 138 84 45 65 193 174 212 175 88 90 51
15 68 46 50 36 64 30 -18 -26 10 39 -3 99 39 27 55 72 40 50 58 88 74 91 96 139 150 98 115 155 99 117 110 110 44 75 75 107 164 147 128 101 108 86 46 11
78 69 37 61 26 40 34 -33 -3 43 20 -2 -13 53 38 1 14 57 70 87 103 129 141 100 116 70 80 84 108 146 102 137 133 105 101 64 88 110 52 64 126 121 89 29 -16
57 44 74 53 52 49 43 -3 4 35 16 17 8 -23 3 -1 112 96 136 78 60 80 116 76 99 92 76 69 92 120 126 117 123 116 112 122 145 103 116 139 140 86 -13 -67 -48
47 89 35 52 -26 27 28 24 4 18 9 5 -5 -19 -10 75 48 69 73 74 59 74 66 69 76 69 92 88 123 113 78 124 120 105 137 146 100 74 98 102 44 -55 -105 -132 -74
69 68 60 31 -22 -15 33 11 10 6 12 6 7 32 4 -5 48 53 63 57 80 79 70 67 54 77 75 75 84 104 85 139 167 143 135 132 72 49 11 19 7 -48 -71 -71 -38
60 71 29 44 20 44 18 29 18 12 21 6 21 14 17 30 35 37 50 42 56 86 79 56 51 53 101 106 77 81 90 105 166 137 119 114 69 -13 -46 -64 -23 -34 -70 -40 -32
47 64 50 16 44 44 80 22 47 20 29 10 0 5 35 36 59 48 47 48 46 48 43 34 27 27 6 26 61 72 94 97 149 118 95 75 3 7 -43 -96 -68 -90 -44 -31 -5
50 47 58 51 32 50 37 20 52 38 14 18 20 39 36 69 57 37 20 11 23 26 24 26 41 32 31 34 75 62 63 85 -4 -9 11 -17 19 -76 -7 29 -19 -43 -32 -19 11
59 52 48 28 4 39 11 55 65 60 9 -9 20 23 28 56 40 27 40 43 24 -1 7 17 37 31 27 65 47 37 8 -27 0 1 -49 -4 -39 29 42 8 -39 -39 -19 -8 2
Wind_Speed
73 74 75 74 74 75 75 75 76 76 75 74 72 70 72 74 72 74 69 54 30 30 33 34 36 37 38 43 41 43 56 63 62 60 57 41 44 43 43 45 42 39 40 28 10
74 76 79 79 78 78 77 78 78 79 77 77 76 72 73 73 72 78 60 32 28 32 34 33 37 32 43 44 42 47 60 59 55 58 53 43 47 46 45 45 44 42 35 24 17
80 80 80 82 83 81 82 82 80 80 79 78 76 73 72 70 74 56 32 29 29 26 33 37 41 35 48 45 45 49 66 60 59 52 53 56 53 52 52 56 51 50 33 25 26
82 86 85 84 85 85 84 83 85 82 82 80 75 69 66 56 67 41 29 29 28 31 36 35 37 42 53 56 46 64 61 65 68 55 56 60 59 63 58 55 59 48 29 27 30
86 87 90 90 91 91 91 89 86 85 82 78 75 67 59 58 59 35 30 32 33 35 37 37 41 46 63 57 56 63 66 71 62 61 57 60 66 64 65 60 59 52 42 38 36
92 92 91 92 92 94 93 92 90 86 84 78 70 59 54 69 42 27 31 33 36 33 36 40 43 49 58 62 64 52 60 66 65 61 60 64 65 61 57 54 55 56 48 44 44
98 99 100 99 94 96 95 94 92 90 86 76 65 51 60 58 40 31 31 34 32 34 39 36 42 43 48 58 58 57 73 73 74 66 62 50 69 68 60 45 46 49 52 40 42
97 96 95 98 97 98 97 97 95 91 87 71 57 48 66 49 39 42 32 32 32 32 36 32 34 44 48 52 53 57 65 75 60 47 46 44 70 54 38 37 45 45 44 42 41
95 96 95 96 99 98 97 97 97 91 77 54 48 46 69 39 43 34 30 26 23 26 28 30 35 42 39 53 65 56 72 65 63 39 43 46 59 40 38 40 43 41 39 39 40
93 94 95 99 101 97 98 101 103 87 56 44 46 51 52 48 31 24 22 25 23 23 30 33 38 43 44 50 71 58 63 63 64 46 49 54 67 66 53 47 50 50 51 50 41
92 93 95 97 96 89 91 83 73 58 42 48 43 43 38 29 25 28 22 26 24 28 40 29 44 52 49 46 53 67 66 67 58 39 52 62 75 71 67 67 60 52 51 46 40
92 91 90 94 96 84 75 61 66 57 74 66 62 57 56 37 39 27 17 28 33 40 32 38 56 48 45 46 47 56 64 69 65 46 56 69 80 73 66 59 55 55 52 47 43
88 90 87 91 93 65 72 69 58 59 64 74 55 61 58 49 45 28 20 30 32 39 40 41 38 27 34 41 50 57 62 63 64 60 63 71 80 61 45 42 45 45 41 39 39
85 85 82 84 66 74 70 61 57 52 63 64 49 47 46 36 57 40 25 25 46 45 40 41 42 32 34 39 39 58 49 50 55 58 65 50 80 66 53 45 44 40 37 34 33
82 78 76 67 58 56 56 60 47 43 59 46 25 36 33 29 37 36 24 33 42 40 32 36 27 29 36 39 27 44 36 42 49 60 66 62 65 64 41 51 41 34 31 30 32
77 76 75 66 51 45 57 47 39 35 48 38 32 31 14 20 32 29 33 34 39 40 38 35 31 31 33 32 35 29 40 42 46 53 67 59 53 62 51 49 32 27 28 30 38
77 79 72 53 53 55 48 40 31 30 35 40 36 24 16 26 32 34 39 36 33 34 39 42 35 33 33 33 32 31 35 49 54 54 61 45 48 60 45 38 29 28 34 41 45
81 72 64 52 44 41 42 32 33 30 36 50 51 24 17 17 33 28 30 39 47 44 31 30 36 27 26 31 32 22 32 45 55 52 49 42 55 49 31 30 28 30 36 47 55
77 65 55 53 46 33 37 31 28 30 40 49 44 32 32 39 36 30 34 35 39 38 40 39 35 27 29 29 30 24 33 33 49 53 60 53 47 39 33 31 28 33 45 54 59
69 65 48 52 45 29 32 24 26 45 52 51 44 41 43 55 48 26 34 33 34 35 36 36 35 29 29 27 27 29 23 35 38 52 55 51 46 45 32 28 30 43 51 56 60
57 59 48 49 34 31 30 24 37 48 49 44 39 44 47 38 38 35 34 35 36 37 35 32 36 32 26 28 27 28 33 32 37 43 49 55 46 40 26 26 34 46 55 60 62
53 60 53 52 41 30 28 27 49 48 46 43 45 47 46 45 40 33 34 34 33 32 31 29 33 37 34 30 32 30 26 23 42 46 46 49 54 40 30 35 44 54 60 61 61
57 47 42 41 49 47 38 45 49 45 42 40 40 40 42 38 39 36 30 32 32 31 31 30 33 35 38 36 33 34 32 34 35 44 45 48 49 33 39 48 51 59 60 59 59
49 52 46 36 39 39 47 42 43 41 39 40 42 43 41 42 37 34 33 36 32 31 29 30 33 35 38 37 33 33 32 27 30 40 48 43 54 54 52 55 57 59 57 57 56
42 42 45 41 43 48 52 44 46 46 40 43 40 41 40 36 36 36 32 29 31 32 32 33 39 41 48 50 47 43 39 41 30 25 56 57 62 62 64 66 65 53 50 52 54
43 44 40 35 28 46 47 42 46 48 44 43 40 41 33 32 36 38 33 35 35 32 33 34 37 44 51 46 45 56 53 31 61 72 74 71 73 66 55 45 47 44 47 50 51
41 38 38 35 28 49 47 53 52 49 37 36 41 37 32 31 29 27 26 28 27 25 29 35 40 42 44 42 52 58 55 62 61 62 61 63 59 52 50 46 45 45 47 47 49
Wind_Direction
347 345 343 344 343 342 340 340 338 334 333 331 327 324 318 314 310 306 302 305 313 325 321 317 310 304 300 295 293 294 281 280 282 283 284 292 290 293 297 291 294 297 298 305 296
346 343 340 338 338 338 338 336 335 331 331 328 325 325 320 317 313 303 306 313 314 316 309 306 301 303 292 290 292 282 279 281 284 289 288 292 289 295 292 289 290 292 299 297 290
339 338 337 334 332 333 332 331 331 331 329 328 326 323 320 320 311 315 334 325 319 316 308 307 303 299 286 289 285 286 277 281 288 293 291 287 288 290 288 286 288 291 282 283 285
338 335 333 332 330 329 329 328 326 326 323 322 324 326 323 322 307 321 340 335 326 315 305 302 298 289 286 281 285 281 284 283 283 291 288 285 287 284 284 282 289 297 297 284 284
332 330 328 326 324 323 322 322 323 322 322 321 319 320 322 309 305 314 321 321 316 308 299 294 291 289 281 287 284 278 282 284 286 286 287 286 282 283 282 284 287 288 290 288 284
331 328 327 324 323 321 320 318 318 318 318 318 318 319 313 303 316 321 313 312 308 304 298 294 292 293 290 285 282 290 290 284 285 285 285 283 284 283 287 286 284 283 285 286 286
328 326 325 322 321 319 317 316 314 313 312 313 315 315 304 299 312 315 313 307 307 302 296 299 298 293 300 289 292 288 284 284 281 280 280 288 283 281 283 284 289 288 287 286 288
332 330 329 325 321 317 315 313 311 309 307 307 312 310 300 310 298 295 302 300 304 303 301 310 304 297 293 296 294 288 286 280 289 276 281 284 281 296 294 286 288 290 290 290 292
334 333 330 327 323 320 317 314 310 305 305 306 308 303 301 315 296 291 288 288 300 306 308 308 303 295 298 290 285 282 279 279 280 284 283 279 283 294 299 295 292 292 293 294 293
338 336 332 328 324 322 318 312 308 302 303 301 298 302 296 298 304 291 279 283 288 297 302 300 297 291 290 282 277 281 276 281 278 280 280 280 280 283 292 292 291 290 290 293 297
341 339 337 335 331 327 324 325 322 316 294 288 296 292 312 313 314 294 279 275 279 288 288 289 289 281 284 282 281 281 284 281 286 292 283 281 281 286 288 287 288 294 293 295 296
342 342 341 338 334 331 330 327 321 319 304 295 285 280 285 300 292 284 264 268 272 275 284 289 284 287 288 294 283 280 279 279 284 290 288 287 283 288 290 290 293 293 294 296 296
346 345 343 340 337 342 334 329 332 328 307 297 285 277 275 269 273 266 247 263 271 276 277 278 297 304 291 291 283 281 279 279 281 290 291 288 286 291 302 301 302 306 305 303 301
349 350 347 343 348 341 335 341 335 335 311 307 303 295 273 261 268 265 241 264 275 276 279 282 282 293 293 289 291 281 290 287 286 288 283 296 282 290 295 299 301 305 309 311 313
353 352 350 350 339 343 342 336 343 344 310 330 325 321 301 251 282 252 247 265 273 273 270 287 288 289 291 293 291 287 302 297 293 287 288 288 285 290 298 296 301 305 309 317 320
354 352 348 348 349 345 343 341 346 339 314 332 340 323 311 249 283 264 259 275 276 269 270 282 299 295 296 304 301 309 302 301 298 291 283 286 283 291 293 297 302 311 314 321 319
354 350 349 353 349 348 349 352 345 329 342 335 330 333 301 278 275 260 249 250 260 264 268 275 281 296 298 300 305 303 299 288 287 285 285 295 289 291 301 310 304 307 311 316 317
353 352 357 5 6 11 14 5 344 355 345 313 310 348 312 287 266 253 244 247 255 268 278 272 281 288 303 296 305 300 295 288 285 286 294 298 292 299 320 324 318 315 315 316 314
355 360 3 10 8 23 14 4 9 10 330 305 299 326 298 268 275 253 247 254 263 266 270 277 284 301 310 310 307 313 299 308 293 294 292 294 300 310 318 317 315 312 312 312 313
358 359 7 13 17 31 13 8 11 327 302 291 314 303 285 242 242 262 253 269 267 276 278 282 285 298 304 314 311 315 325 305 299 292 292 299 298 301 308 311 311 307 309 308 310
4 3 9 14 22 26 15 21 350 303 303 296 304 286 249 254 268 267 268 272 279 275 276 281 284 296 309 302 305 307 304 310 304 298 297 299 304 312 317 313 311 304 301 305 312
6 0 6 13 18 19 20 15 309 300 307 293 276 264 260 268 267 277 274 275 276 275 274 286 289 288 299 316 314 314 315 306 295 297 298 300 297 311 314 307 302 297 302 308 315
2 6 16 25 4 7 9 334 279 284 306 306 286 281 272 274 277 276 278 277 274 275 277 286 290 290 301 309 312 307 305 305 303 301 296 298 298 310 292 290 298 299 309 311 309
6 6 11 23 20 12 353 327 314 314 322 310 293 285 285 276 284 278 274 266 272 273 283 293 292 294 300 312 323 318 310 306 303 301 294 290 284 277 279 286 297 306 308 304 302
12 12 11 2 8 354 317 306 309 317 329 313 300 297 285 289 282 266 266 266 270 272 282 292 292 300 300 304 303 302 301 297 293 290 283 274 258 259 270 282 301 304 294 292 305
8 8 9 1 11 336 310 319 307 319 327 307 295 295 291 288 263 250 263 262 265 277 284 294 301 309 306 308 307 295 295 298 225 238 245 245 250 264 290 306 303 290 288 294 304
9 10 8 4 11 322 304 299 290 298 310 294 274 279 267 270 273 271 274 272 280 296 298 301 304 310 307 316 302 291 281 239 251 246 235 239 255 283 290 295 279 279 292 294 301